This is the latest recevied weather packets stored in our database for station/object KC5TIL-3. If no packets are shown the sender has not sent any weather packets the latest 10 day(s).
| Time | Temp. | Humidity | Pressure | Rain* | Wind** | Luminosity | Snow |
|---|---|---|---|---|---|---|---|
| 1787909670 | 27.78° C | 31% | 1013.8 hPa | 0 mm | 0 m/s | - | - |
| 1787909372 | 27.78° C | 30% | 1013.8 hPa | 0 mm | 0 m/s | - | - |
| 1787909070 | 28.33° C | 30% | 1013.8 hPa | 0 mm | 0 m/s | - | - |
| 1787908474 | 28.33° C | 30% | 1013.8 hPa | 0 mm | 1.34 m/s, 126° | - | - |
| 1787908173 | 28.33° C | 30% | 1013.8 hPa | 0 mm | 1.34 m/s, 126° | - | - |
| 1787907874 | 28.33° C | 29% | 1013.8 hPa | 0 mm | 1.34 m/s, 126° | - | - |
| 1787907576 | 28.33° C | 29% | 1013.8 hPa | 0 mm | 0 m/s | - | - |
| 1787907275 | 28.33° C | 29% | 1013.8 hPa | 0 mm | 0 m/s | - | - |
| 1787906977 | 28.33° C | 29% | 1013.8 hPa | 0 mm | 0 m/s | - | - |
| 1787906679 | 28.89° C | 28% | 1013.8 hPa | 0 mm | 0 m/s | - | - |
| 1787906377 | 28.89° C | 28% | 1013.8 hPa | 0 mm | 2.24 m/s, 126° | - | - |
| 1787906079 | 28.89° C | 28% | 1013.8 hPa | 0 mm | 2.24 m/s, 125° | - | - |
| 1787905781 | 28.89° C | 27% | 1013.8 hPa | 0 mm | 1.79 m/s, 120° | - | - |
| 1787905480 | 28.89° C | 27% | 1013.8 hPa | 0 mm | 1.34 m/s, 119° | - | - |
| 1787905181 | 28.89° C | 27% | 1013.8 hPa | 0 mm | 1.79 m/s, 117° | - | - |
| 1787904883 | 28.89° C | 26% | 1013.8 hPa | 0 mm | 2.68 m/s, 115° | - | - |
| 1787904582 | 28.89° C | 26% | 1013.8 hPa | 0 mm | 2.24 m/s, 118° | - | - |
| 1787904284 | 29.44° C | 25% | 1013.8 hPa | 0 mm | 2.68 m/s, 118° | - | - |
| 1787903986 | 29.44° C | 25% | 1013.8 hPa | 0 mm | 2.68 m/s, 114° | - | - |
| 1787903684 | 29.44° C | 24% | 1013.8 hPa | 0 mm | 2.68 m/s, 121° | - | - |
| 1787903386 | 29.44° C | 23% | 1013.8 hPa | 0 mm | 2.68 m/s, 116° | - | - |
| 1787903088 | 29.44° C | 22% | 1013.8 hPa | 0 mm | 2.24 m/s, 114° | - | - |
| 1787902787 | 29.44° C | 22% | 1013.8 hPa | 0 mm | 2.68 m/s, 121° | - | - |
| 1787902488 | 30° C | 22% | 1013.8 hPa | 0 mm | 2.68 m/s, 117° | - | - |
| 1787902185 | 30° C | 21% | 1013.8 hPa | 0 mm | 3.13 m/s, 110° | - | - |
* Rain latest hour (hover to see other rain measurements)
** Current wind speed in m/s (hover to see current wind gust speed)